Terminal Aerodrome Forecast
Issued by NWS Indianapolis, IN

Home | Current Version | Previous Version | Text Only | Print | Product List | Glossary On
Versions: 1 2 3 4 5 6 7 8 9 10 11 12 13 14 15 16 17 18 19 20 21 22 23 24
000
FTUS43 KIND 170200 AAA
TAFIND
TAF AMD
KIND 170221Z 1702/1806 VRB04KT P6SM SKC
     FM171000 VRB02KT 4SM BR SKC
     FM171300 VRB03KT P6SM SCT035
     FM171600 26005KT P6SM BKN040=

USA.gov is the U.S. government's official web portal to all federal, state and local government web resources and services.